Regional Weather Roundup
Issued by NWS

Home | Current Version | Previous Version | Text Only | Print | Product List | Glossary Off
Versions: 1 2 3 4 5 6 7 8 9 10 11 12 13 14 15 16 17 18 19 20 21 22 23 24 25 26 27 28 29 30 31 32 33 34 35 36 37 38 39 40 41 42 43 44 45 46 47 48 49 50

001
ASUS44 KJAN 250710
RWRMS

MISSISSIPPI HOURLY WEATHER ROUNDUP
NATIONAL WEATHER SERVICE JACKSON MS
100 AM CST SUN JAN 25 2015

NOTE: "FAIR: INDICATES FEW OR NO CLOUDS BELOW 12,000 FEET WITH NO
SIGNIFICANT WEATHER AND/OR OBSTRUCTIONS TO VISIBILITY.

MSZ001>002-007>008-010>013-018>021-025>028-034>036-250800-
NORTHWEST MISSISSIPPI

CITY           SKY/WX    TMP DP  RH WIND       PRES   REMARKS
CLARKSDALE     FAIR      41  36  81 SW7       29.93F
CLEVELAND      FAIR      39  37  91 S6        29.94F WCI  35
GREENWOOD      CLEAR     40  34  79 SW9       29.96F WCI  34
GREENVILLE     CLEAR     44  34  67 W8        29.95F
GRENADA        FAIR      30  30 100 CALM      29.96R
OLIVE BRANCH   CLEAR     34  34 100 S9        29.90S WCI  26
OXFORD         FAIR      37  32  81 S5        29.94S WCI  34
TUNICA         SUNNY     37  34  87 SW6       29.92S WCI  33
$$

MSZ003>006-009-014>017-022>024-029>033-037>039-250800-
NORTHEAST MISSISSIPPI

CITY           SKY/WX    TMP DP  RH WIND       PRES   REMARKS
COLUMBUS AFB   CLEAR     32  29  90 S2        29.97F
CORINTH        FAIR      34  30  86 CALM      29.90F
GOLDN TRIANGLE CLEAR     36  28  75 S6        29.96S WCI  31
STARKVILLE     FAIR      32  30  93 CALM      29.97S
TUPELO         CLEAR     37  31  78 MISG      29.94F
$$

MSZ040-058-250800-
CENTRAL MISSISSIPPI

CITY           SKY/WX    TMP DP  RH WIND       PRES   REMARKS
JACKSON INTL   CLEAR     39  33  79 SW3       30.00F
JACKSON HAWKNS CLEAR     40  33  76 S5        30.00F
MERIDIAN KEY   CLEAR     31  28  89 CALM      30.01F
MERIDIAN NAS   CLEAR     39  31  72 SW6       30.00F WCI  35
RAYMOND        FAIR      41  36  81 SW7       30.00F
VICKSBURG      CLEAR     44  35  70 SW3       30.00F
$$

MSZ059>079-250800-
SOUTH MISSISSIPPI

CITY           SKY/WX    TMP DP  RH WIND       PRES   REMARKS
BROOKHAVEN       N/A     37  36  93 CALM      30.04F
HATTIESBURG    CLEAR     38  32  79 CALM      30.06S
MCCOMB         CLEAR     39  34  82 S5        30.04F
NATCHEZ        CLEAR     45  37  76 SW7       30.02F
PINE BELT      CLEAR     36  28  75 SW3       30.03F
$$

MSZ080>082-250800-
COASTAL MISSISSIPPI

CITY           SKY/WX    TMP DP  RH WIND       PRES   REMARKS
BILOXI         CLEAR     47  40  76 W8        30.07S
PASCAGOULA     PTCLDY    39  38  96 CALM      30.07S
GULFPORT       CLEAR     44  38  79 W3        30.07S
$$



USA.gov is the U.S. government's official web portal to all federal, state and local government web resources and services.